Location: Austin
(30.3000°N, 97.7500°W)
Time: 04:12:48
(UTC-05:00)

Cosmos 2333 Rocket - Pass Details

Date: 18 March 2023
Orbit: 837 x 864 km, 70.8° (Epoch: 01 April)

Event Time Altitude Azimuth Distance (km) Brightness Sun altitude
Rises 20:06:13 0° 2° (N) 3,447 5.4 -6.2°
Reaches altitude 10° 20:10:03 10° 27° (NNE) 2,505 4.4 -7.1°
Maximum altitude 20:12:56 14° 57° (ENE) 2,230 3.9 -7.7°
Drops below altitude 10° 20:15:49 10° 88° (E) 2,496 4.0 -8.3°
Enters shadow 20:15:54 10° 89° (E) 2,510 4.0 -8.3°
